Voltar ao catálogo

GALILEO-FM4

LostNavegaçãoMEO
NORAD 38858·PAYLOAD·🇪🇺 EU

Lançado Oct 12, 2012 de Guiana Space Centre

Loading…

Próximas Passagens (próximas 24 horas)

TLE

ObsoletoSource: Space-Track

Época: Mar 1, 2025, 18:33 UTC

1 38858U 12055B   25060.77336331  .00000028  00000-0  00000-0 0  9991
2 38858  55.5405 115.2181 0002939 278.1775  81.8829  1.64591902  5353

Acompanhe GALILEO-FM4 em tempo real com AllMySat

Download on the App Store